Weather History for KLSB - March, 2013

Change the Weather History Date:

Wednesday, March 13, 2013

  Actual Average Record
Temperature  
Mean Temperature 61 °F -  
Max Temperature 78 °F 68 °F 78 °F (2013)
Min Temperature 44 °F 30 °F 33 °F (2015)
Degree Days  
Heating Degree Days 4    
Growing Degree Days 11 (Base 50)    
Moisture  
Dew Point 19 °F    
Average Humidity 23    
Maximum Humidity 43    
Minimum Humidity 10    
Precipitation  
Precipitation 0.00 in - - ()
Sea Level Pressure  
Sea Level Pressure 30.24 in    
Wind  
Wind Speed 10 mph (SSE)    
Max Wind Speed 20 mph    
Max Gust Speed 25 mph    
Visibility 10 miles    
Events      
Averages and records for this station are not official NWS values.
T = Trace of Precipitation, MM = Missing Value Source: NWS Daily Summary

Daily Weather History Graph

Daily Weather History Graph

Search for Another Location

Airport or City:

Trip Planner

Search our weather history database for the weather conditions in past years. The results will help you decide how hot, cold, wet, or windy it might be!

Date:

Astronomy

Mar. 13, 2013 Rise Set
Actual Time 7:27 AM MDT 7:21 PM MDT
Civil Twilight 7:02 AM MDT 7:46 PM MDT
Nautical Twilight 6:34 AM MDT 8:14 PM MDT
Astronomical Twilight 6:05 AM MDT 8:43 PM MDT
Moon 8:17 AM MDT (3/13) 9:30 PM MDT (3/13)
Length of Visible Light 12h 43m
Length of Day
11h 54m
Waxing Crescent, 4% of the Moon is Illuminated
Mar 13
Waxing Crescent
Mar 19
First Quarter
Mar 27
Full
Apr 2
Last Quarter
Apr 10
New

Hourly Weather History & Observations

Time (MDT) Temp. Windchill Dew Point Humidity Pressure Visibility Wind Dir Wind Speed Gust Speed Precip Events Conditions
12:15 AM 48.2 °F - 17.6 °F 30% 30.22 in 10.0 mi SSE 5.8 mph - N/A   Clear
12:35 AM 46.4 °F 42.4 °F 17.6 °F 32% 30.22 in 10.0 mi South 8.1 mph - N/A   Clear
12:55 AM 46.4 °F 42.9 °F 17.6 °F 32% 30.22 in 10.0 mi South 6.9 mph - N/A   Clear
1:15 AM 48.2 °F - 17.6 °F 30% 30.23 in 10.0 mi South 9.2 mph - N/A   Clear
1:35 AM 50.0 °F - 17.6 °F 28% 30.23 in 10.0 mi South 9.2 mph - N/A   Clear
1:55 AM 50.0 °F - 17.6 °F 28% 30.24 in 10.0 mi SSE 9.2 mph - N/A   Clear
2:15 AM 50.0 °F - 17.6 °F 28% 30.24 in 10.0 mi SSE 8.1 mph - N/A   Clear
2:55 AM 46.4 °F 42.9 °F 19.4 °F 34% 30.24 in 10.0 mi SSE 6.9 mph - N/A   Clear
3:15 AM 46.4 °F 42.4 °F 19.4 °F 34% 30.24 in 10.0 mi South 8.1 mph - N/A   Clear
3:35 AM 46.4 °F 41.9 °F 21.2 °F 37% 30.24 in 10.0 mi South 9.2 mph - N/A   Clear
3:55 AM 46.4 °F 41.1 °F 21.2 °F 37% 30.23 in 10.0 mi SSE 11.5 mph - N/A   Clear
4:15 AM 48.2 °F - 21.2 °F 34% 30.23 in 10.0 mi SSE 11.5 mph - N/A   Clear
4:35 AM 48.2 °F - 21.2 °F 34% 30.23 in 10.0 mi SSE 13.8 mph - N/A   Clear
4:55 AM 48.2 °F - 21.2 °F 34% 30.23 in 10.0 mi SSE 9.2 mph - N/A   Clear
5:15 AM 46.4 °F 41.5 °F 21.2 °F 37% 30.24 in 10.0 mi South 10.4 mph - N/A   Clear
5:35 AM 46.4 °F 42.4 °F 21.2 °F 37% 30.24 in 10.0 mi South 8.1 mph - N/A   Clear
5:55 AM 46.4 °F 42.4 °F 21.2 °F 37% 30.25 in 10.0 mi South 8.1 mph - N/A   Clear
6:15 AM 46.4 °F 42.4 °F 21.2 °F 37% 30.25 in 10.0 mi South 8.1 mph - N/A   Clear
6:35 AM 44.6 °F 39.7 °F 21.2 °F 39% 30.27 in 10.0 mi South 9.2 mph - N/A   Clear
6:55 AM 44.6 °F 38.8 °F 23.0 °F 43% 30.28 in 10.0 mi South 11.5 mph - N/A   Clear
7:15 AM 46.4 °F 40.7 °F 23.0 °F 40% 30.28 in 10.0 mi South 12.7 mph - N/A   Clear
7:35 AM 46.4 °F 41.5 °F 23.0 °F 40% 30.28 in 10.0 mi South 10.4 mph - N/A   Clear
7:55 AM 46.4 °F 42.4 °F 23.0 °F 40% 30.28 in 10.0 mi SSE 8.1 mph - N/A   Clear
8:15 AM 50.0 °F - 24.8 °F 37% 30.29 in 10.0 mi SSE 10.4 mph - N/A   Clear
8:35 AM 51.8 °F - 24.8 °F 35% 30.29 in 10.0 mi SSE 10.4 mph - N/A   Clear
8:55 AM 55.4 °F - 24.8 °F 31% 30.30 in 10.0 mi South 13.8 mph - N/A   Clear
9:15 AM 57.2 °F - 23.0 °F 27% 30.31 in 10.0 mi SSE 13.8 mph - N/A   Clear
9:35 AM 59.0 °F - 24.8 °F 27% 30.30 in 10.0 mi SSE 13.8 mph 19.6 mph N/A   Clear
9:55 AM 60.8 °F - 24.8 °F 25% 30.30 in 10.0 mi SSE 17.3 mph - N/A   Clear
10:15 AM 62.6 °F - 24.8 °F 24% 30.31 in 10.0 mi SE 17.3 mph 23.0 mph N/A   Clear
10:35 AM 64.4 °F - 24.8 °F 22% 30.31 in 10.0 mi SE 18.4 mph 24.2 mph N/A   Clear
10:55 AM 64.4 °F - 24.8 °F 22% 30.31 in 10.0 mi SE 17.3 mph 21.9 mph N/A   Clear
11:15 AM 66.2 °F - 23.0 °F 19% 30.31 in 10.0 mi SE 19.6 mph 24.2 mph N/A   Clear
11:35 AM 68.0 °F - 24.8 °F 20% 30.31 in 10.0 mi SE 18.4 mph 24.2 mph N/A   Clear
11:55 AM 68.0 °F - 24.8 °F 20% 30.31 in 10.0 mi ESE 16.1 mph 25.3 mph N/A   Clear
12:15 PM 69.8 °F - 23.0 °F 17% 30.31 in 10.0 mi SE 18.4 mph 21.9 mph N/A   Clear
12:35 PM 69.8 °F - 23.0 °F 17% 30.30 in 10.0 mi ESE 17.3 mph 21.9 mph N/A   Clear
12:55 PM 71.6 °F - 23.0 °F 16% 30.29 in 10.0 mi ESE 12.7 mph 21.9 mph N/A   Clear
1:15 PM 71.6 °F - 23.0 °F 16% 30.28 in 10.0 mi ESE 15.0 mph 21.9 mph N/A   Clear
1:35 PM 71.6 °F - 21.2 °F 15% 30.28 in 10.0 mi ESE 12.7 mph 25.3 mph N/A   Clear
1:55 PM 73.4 °F - 21.2 °F 14% 30.26 in 10.0 mi ESE 11.5 mph 21.9 mph N/A   Clear
2:15 PM 73.4 °F - 19.4 °F 13% 30.25 in 10.0 mi ESE 11.5 mph 18.4 mph N/A   Clear
2:35 PM 75.2 °F - 21.2 °F 13% 30.24 in 10.0 mi SE 11.5 mph 19.6 mph N/A   Clear
2:55 PM 75.2 °F - 19.4 °F 12% 30.23 in 10.0 mi SE 9.2 mph 20.7 mph N/A   Clear
3:15 PM 75.2 °F - 19.4 °F 12% 30.22 in 10.0 mi SE 11.5 mph 20.7 mph N/A   Clear
3:35 PM 77.0 °F - 19.4 °F 12% 30.22 in 10.0 mi SE 10.4 mph - N/A   Clear
3:55 PM 77.0 °F - 19.4 °F 12% 30.21 in 10.0 mi ESE 9.2 mph 18.4 mph N/A   Clear
4:15 PM 77.0 °F - 17.6 °F 11% 30.20 in 10.0 mi ESE 11.5 mph 17.3 mph N/A   Clear
4:35 PM 77.0 °F - 17.6 °F 11% 30.19 in 10.0 mi ESE 8.1 mph - N/A   Clear
4:55 PM 78.8 °F - 17.6 °F 10% 30.19 in 10.0 mi SE 12.7 mph - N/A   Clear
5:15 PM 77.0 °F - 17.6 °F 11% 30.18 in 10.0 mi ESE 9.2 mph - N/A   Clear
5:35 PM 77.0 °F - 17.6 °F 11% 30.18 in 10.0 mi ESE 9.2 mph - N/A   Clear
5:55 PM 77.0 °F - 15.8 °F 10% 30.18 in 10.0 mi SE 6.9 mph - N/A   Clear
6:15 PM 77.0 °F - 15.8 °F 10% 30.18 in 10.0 mi East 8.1 mph - N/A   Clear
6:35 PM 75.2 °F - 15.8 °F 11% 30.18 in 10.0 mi East 6.9 mph - N/A   Clear
6:55 PM 73.4 °F - 15.8 °F 11% 30.19 in 10.0 mi East 5.8 mph - N/A   Clear
7:15 PM 69.8 °F - 14.0 °F 12% 30.19 in 10.0 mi East 5.8 mph - N/A   Clear
7:35 PM 66.2 °F - 14.0 °F 13% 30.19 in 10.0 mi East 4.6 mph - N/A   Clear
7:55 PM 62.6 °F - 14.0 °F 15% 30.19 in 10.0 mi ESE 3.5 mph - N/A   Clear
8:15 PM 60.8 °F - 14.0 °F 16% 30.20 in 10.0 mi Calm Calm - N/A   Clear
8:35 PM 59.0 °F - 14.0 °F 17% 30.20 in 10.0 mi Calm Calm - N/A   Clear
8:55 PM 55.4 °F - 14.0 °F 20% 30.21 in 10.0 mi South 4.6 mph - N/A   Clear
9:15 PM 55.4 °F - 14.0 °F 20% 30.21 in 10.0 mi South 8.1 mph - N/A   Clear
9:35 PM 55.4 °F - 14.0 °F 20% 30.21 in 10.0 mi South 8.1 mph - N/A   Clear
9:55 PM 53.6 °F - 15.8 °F 22% 30.22 in 10.0 mi South 6.9 mph - N/A   Clear
10:15 PM 55.4 °F - 14.0 °F 20% 30.23 in 10.0 mi South 6.9 mph - N/A   Clear
10:35 PM 53.6 °F - 14.0 °F 21% 30.23 in 10.0 mi South 9.2 mph - N/A   Clear
10:55 PM 53.6 °F - 14.0 °F 21% 30.24 in 10.0 mi South 8.1 mph - N/A   Clear
11:15 PM 53.6 °F - 14.0 °F 21% 30.24 in 10.0 mi South 8.1 mph - N/A   Clear
11:35 PM 51.8 °F - 14.0 °F 22% 30.24 in 10.0 mi South 8.1 mph - N/A   Clear
11:55 PM 51.8 °F - 14.0 °F 22% 30.24 in 10.0 mi South 6.9 mph - N/A   Clear